Location: Jackson Park
(37.2862°N, 79.9123°W)
Time: 20:40:43
(UTC+00:00)

Vanguard 2 - Pass Details

Date: 17 May 2026
Orbit: 553 x 2894 km, 32.9° (Epoch: 6 June)

Event Time Altitude Azimuth Distance (km) Brightness Sun altitude
Rises 06:25:34 0° 238° (WSW) 6,097 - -31.0°
Reaches altitude 10° 06:29:20 10° 235° (SW) 5,299 - -30.8°
Exits shadow 06:38:55 43° 217° (SW) 3,611 10.3 -30.1°
Maximum altitude 06:45:43 63° 160° (SSE) 3,134 10.2 -29.6°
Drops below altitude 10° 07:01:56 10° 85° (E) 5,254 12.1 -28.1°
Sets 07:05:37 0° 82° (E) 6,047 12.6 -27.8°
